Location: Clanezzo
(45.7500°N, 9.6000°E)
Time: 02:36:30
(UTC+00:00)

EO-79 - Pass Details

Date: 07 July 2022
Orbit: 588 x 603 km, 98.0° (Epoch: 13 August)

Event Time Altitude Azimuth Distance (km) Brightness Sun altitude
Rises 01:56:31 0° 3° (N) 2,861 ? -13.6°
Reaches altitude 10° 01:58:52 10° 353° (N) 1,955 ? -13.4°
Maximum altitude 02:02:35 30° 292° (WNW) 1,084 ? -13.0°
Enters shadow 02:05:05 17° 241° (WSW) 1,541 ? -12.8°
